GPS BIIRM-1 (PRN 17)

Last updated on July 6, 2021, 3:39 p.m. UTC

1 28874U 05038A   21186.54781650 -.00000090  00000-0  00000-0 0  9999
2 28874  56.2605 345.1222 0135816 270.3028 121.3282  2.00570138115585
UTC
Height (km)
Latitude
Longitude
Inclination
Orbital Period
UTC large
Height (km)
Speed (km/s)
/
Latitude / Longitude
Inclination (degrees)
Orbital Period (minutes)
Azimuth
Elevation
Range (km)
Doppler Factor
iOS Compass Heading
iOS Angle